Location: ???????
(55.3754°N, 39.3545°E)
Time: 07:21:17
(UTC+00:00)

SL-16 R/B - Pass Details

Date: 14 April 2026
Orbit: 841 x 845 km, 71.0° (Epoch: 12 May)

Event Time Altitude Azimuth Distance (km) Brightness Sun altitude
Rises 23:30:50 0° 325° (NW) 3,416 5.6 -19.7°
Reaches altitude 10° 23:33:20 10° 329° (NNW) 2,478 4.9 -19.5°
Maximum altitude 23:38:58 59° 49° (NE) 978 2.8 -19.0°
Drops below altitude 10° 23:44:33 10° 129° (SE) 2,466 4.6 -18.5°
Sets 23:47:02 0° 133° (SE) 3,398 5.3 -18.3°
